When you browse on this site, cookies collect data to enhance your experience and personalize the content and advertising you see.
Visit our Privacy Policy to learn more. By continuing to use the site, you agree to this use of cookies and data.
  • In Lithuania
  • List of Countries
  • For 7 days
  • Water Temperature
  • Satellite Maps
  • Weather Map
  • Weather Widgets
  • user-avatar
    Login

    Hourly Weather Staraya Poltavka

    Today, 20 January, Sunday

    Time Temperature Precipitation Wind Pressure Humidity
    00:00 -2°C° 0 mm 5 mps 759 mmHg 91%
    01:00 -5°C° 0 mm 5 mps 759 mmHg 90%
    02:00 -6°C° 0 mm 5 mps 760 mmHg 89%
    03:00 -8°C° 0 mm 5 mps 760 mmHg 88%
    04:00 -9°C° 0 mm 4 mps 761 mmHg 88%
    05:00 -10°C° 0 mm 4 mps 762 mmHg 88%
    06:00 -11°C° 0 mm 4 mps 762 mmHg 87%
    07:00 -11°C° 0 mm 4 mps 763 mmHg 88%
    08:00 -11°C° 0 mm 4 mps 763 mmHg 88%
    09:00 -11°C° 0 mm 4 mps 764 mmHg 89%
    10:00 -10°C° 0 mm 4 mps 764 mmHg 89%
    11:00 -10°C° 0 mm 4 mps 765 mmHg 88%
    12:00 -9°C° 0 mm 4 mps 765 mmHg 88%
    13:00 -8°C° 0 mm 3 mps 765 mmHg 88%
    14:00 -8°C° 0 mm 3 mps 765 mmHg 88%
    15:00 -8°C° 0 mm 2 mps 766 mmHg 89%
    16:00 -8°C° 0 mm 2 mps 766 mmHg 89%
    17:00 -9°C° 0 mm 2 mps 766 mmHg 90%
    18:00 -10°C° 0 mm 2 mps 766 mmHg 90%
    19:00 -10°C° 0 mm 2 mps 766 mmHg 91%
    20:00 -10°C° 0 mm 2 mps 767 mmHg 91%
    21:00 -12°C° 0 mm 2 mps 767 mmHg 92%
    22:00 -12°C° 0 mm 2 mps 766 mmHg 91%
    23:00 -13°C° 0 mm 3 mps 766 mmHg 91%

    Tomorrow, 21 January, Monday

    Time Temperature Precipitation Wind Pressure Humidity
    00:00 -13°C° 0 mm 3 mps 766 mmHg 91%
    01:00 -13°C° 0 mm 3 mps 766 mmHg 91%
    02:00 -13°C° 0 mm 3 mps 766 mmHg 91%
    03:00 -14°C° 0 mm 4 mps 766 mmHg 91%
    04:00 -15°C° 0 mm 4 mps 766 mmHg 91%
    05:00 -15°C° 0 mm 4 mps 766 mmHg 92%
    06:00 -15°C° 0 mm 4 mps 765 mmHg 92%
    07:00 -15°C° 0 mm 4 mps 765 mmHg 92%
    08:00 -14°C° 0 mm 4 mps 765 mmHg 92%
    09:00 -14°C° 0 mm 4 mps 765 mmHg 92%
    10:00 -12°C° 0 mm 4 mps 764 mmHg 90%
    11:00 -12°C° 0 mm 5 mps 763 mmHg 88%
    12:00 -11°C° 0 mm 5 mps 763 mmHg 86%
    13:00 -10°C° 0.1 mm 6 mps 762 mmHg 86%
    14:00 -9°C° 0.1 mm 6 mps 761 mmHg 87%
    15:00 -9°C° 0.1 mm 7 mps 760 mmHg 88%
    16:00 -8°C° 1.1 mm 7 mps 759 mmHg 90%
    17:00 -7°C° 1.1 mm 8 mps 757 mmHg 92%
    18:00 -6°C° 1.1 mm 9 mps 756 mmHg 94%
    19:00 -5°C° 0.9 mm 9 mps 756 mmHg 93%
    20:00 -4°C° 0.9 mm 10 mps 755 mmHg 91%
    21:00 -3°C° 0.9 mm 10 mps 754 mmHg 90%
    22:00 -4°C° 0.7 mm 9 mps 754 mmHg 91%
    23:00 -5°C° 0.7 mm 8 mps 755 mmHg 92%

    Day after tomorrow, 22 January, Tuesday

    Time Temperature Precipitation Wind Pressure Humidity
    00:00 -6°C° 0.7 mm 7 mps 755 mmHg 93%
    01:00 -6°C° 0.3 mm 6 mps 755 mmHg 91%
    02:00 -9°C° 0.3 mm 6 mps 756 mmHg 90%
    03:00 -10°C° 0.3 mm 5 mps 756 mmHg 89%
    04:00 -11°C° 0 mm 5 mps 757 mmHg 89%
    05:00 -12°C° 0 mm 4 mps 758 mmHg 89%
    06:00 -14°C° 0 mm 4 mps 758 mmHg 89%
    07:00 -14°C° 0 mm 4 mps 759 mmHg 89%
    08:00 -14°C° 0 mm 4 mps 760 mmHg 88%
    09:00 -15°C° 0 mm 4 mps 761 mmHg 88%
    10:00 -14°C° 0 mm 4 mps 761 mmHg 88%
    11:00 -14°C° 0 mm 4 mps 762 mmHg 87%
    12:00 -12°C° 0 mm 4 mps 762 mmHg 87%
    13:00 -14°C° 0 mm 4 mps 763 mmHg 87%
    14:00 -13°C° 0 mm 3 mps 763 mmHg 88%
    15:00 -14°C° 0 mm 3 mps 763 mmHg 88%
    16:00 -15°C° 0 mm 3 mps 764 mmHg 88%
    17:00 -16°C° 0 mm 3 mps 764 mmHg 89%
    18:00 -17°C° 0 mm 3 mps 765 mmHg 90%
    19:00 -18°C° 0 mm 3 mps 765 mmHg 90%
    20:00 -18°C° 0 mm 3 mps 766 mmHg 90%
    21:00 -19°C° 0 mm 3 mps 766 mmHg 90%
    22:00 -19°C° 0 mm 3 mps 766 mmHg 91%
    23:00 -21°C° 0 mm 3 mps 767 mmHg 91%

    23 January, Wednesday

    Time Temperature Precipitation Wind Pressure Humidity
    00:00 -19°C° 0 mm 2 mps 767 mmHg 92%
    01:00 -19°C° 0 mm 2 mps 767 mmHg 92%
    02:00 -20°C° 0 mm 2 mps 768 mmHg 93%
    03:00 -20°C° 0 mm 2 mps 768 mmHg 93%
    04:00 -20°C° 0 mm 2 mps 768 mmHg 94%
    05:00 -21°C° 0 mm 2 mps 768 mmHg 94%
    06:00 -21°C° 0 mm 2 mps 769 mmHg 95%
    07:00 -19°C° 0 mm 1 mps 769 mmHg 95%
    08:00 -19°C° 0 mm 1 mps 770 mmHg 95%
    09:00 -19°C° 0 mm 1 mps 770 mmHg 95%
    10:00 -18°C° 0 mm 1 mps 770 mmHg 93%
    11:00 -17°C° 0 mm 0 mps 770 mmHg 91%
    12:00 -16°C° 0 mm 0 mps 771 mmHg 89%
    13:00 -16°C° 0 mm 0 mps 771 mmHg 90%
    14:00 -16°C° 0 mm 0 mps 771 mmHg 90%
    15:00 -16°C° 0 mm 0 mps 770 mmHg 91%
    16:00 -17°C° 0 mm 0 mps 771 mmHg 91%
    17:00 -18°C° 0 mm 1 mps 771 mmHg 92%
    18:00 -18°C° 0 mm 1 mps 771 mmHg 93%
    19:00 -19°C° 0 mm 1 mps 772 mmHg 92%
    20:00 -19°C° 0 mm 1 mps 772 mmHg 92%
    21:00 -21°C° 0 mm 2 mps 772 mmHg 91%
    22:00 -21°C° 0 mm 2 mps 772 mmHg 91%
    23:00 -21°C° 0 mm 2 mps 773 mmHg 90%

    24 January, Thursday

    Time Temperature Precipitation Wind Pressure Humidity
    00:00 -21°C° 0 mm 2 mps 773 mmHg 90%
    01:00 -21°C° 0 mm 2 mps 773 mmHg 90%
    02:00 -21°C° 0 mm 2 mps 773 mmHg 89%
    03:00 -21°C° 0 mm 2 mps 773 mmHg 89%
    04:00 -21°C° 0 mm 2 mps 773 mmHg 88%
    05:00 -23°C° 0 mm 2 mps 773 mmHg 88%
    06:00 -23°C° 0 mm 2 mps 773 mmHg 88%
    07:00 -21°C° 0 mm 2 mps 773 mmHg 88%
    08:00 -23°C° 0 mm 3 mps 773 mmHg 88%
    09:00 -23°C° 0 mm 3 mps 774 mmHg 88%
    10:00 -22°C° 0 mm 3 mps 773 mmHg 87%
    11:00 -21°C° 0 mm 3 mps 773 mmHg 86%
    12:00 -19°C° 0 mm 3 mps 773 mmHg 85%
    13:00 -19°C° 0 mm 3 mps 773 mmHg 86%
    14:00 -19°C° 0 mm 3 mps 772 mmHg 87%
    15:00 -19°C° 0 mm 3 mps 772 mmHg 88%
    16:00 -19°C° 0 mm 3 mps 772 mmHg 89%
    17:00 -21°C° 0 mm 3 mps 771 mmHg 90%
    18:00 -23°C° 0 mm 4 mps 771 mmHg 90%
    19:00 -22°C° 0 mm 4 mps 771 mmHg 91%
    20:00 -22°C° 0 mm 4 mps 771 mmHg 92%
    21:00 -22°C° 0 mm 4 mps 770 mmHg 92%
    22:00 -22°C° 0 mm 4 mps 770 mmHg 92%
    23:00 -22°C° 0 mm 4 mps 770 mmHg 92%

    25 January, Friday

    Time Temperature Precipitation Wind Pressure Humidity
    00:00 -22°C° 0 mm 4 mps 769 mmHg 91%
    01:00 -22°C° 0 mm 4 mps 769 mmHg 91%
    02:00 -21°C° 0 mm 3 mps 769 mmHg 91%
    03:00 -21°C° 0 mm 3 mps 768 mmHg 90%
    04:00 -19°C° 0 mm 3 mps 768 mmHg 91%
    05:00 -19°C° 0 mm 3 mps 767 mmHg 91%
    06:00 -18°C° 0 mm 3 mps 767 mmHg 91%
    07:00 -18°C° 0 mm 4 mps 767 mmHg 91%
    08:00 -17°C° 0 mm 4 mps 767 mmHg 91%
    09:00 -17°C° 0 mm 5 mps 767 mmHg 90%
    10:00 -17°C° 0 mm 5 mps 766 mmHg 90%
    11:00 -15°C° 0 mm 5 mps 766 mmHg 90%
    12:00 -14°C° 0 mm 5 mps 765 mmHg 90%
    13:00 -14°C° 0 mm 5 mps 765 mmHg 91%
    14:00 -13°C° 0 mm 5 mps 764 mmHg 91%
    15:00 -13°C° 0 mm 5 mps 764 mmHg 92%
    16:00 -13°C° 0.1 mm 5 mps 764 mmHg 93%
    17:00 -12°C° 0.1 mm 5 mps 763 mmHg 93%
    18:00 -12°C° 0.1 mm 5 mps 763 mmHg 94%
    19:00 -12°C° 0.2 mm 5 mps 763 mmHg 94%
    20:00 -10°C° 0.2 mm 4 mps 763 mmHg 94%
    21:00 -10°C° 0.2 mm 4 mps 762 mmHg 95%
    22:00 -10°C° 0.3 mm 4 mps 762 mmHg 95%
    23:00 -9°C° 0.3 mm 4 mps 761 mmHg 95%
    Show more